TimePDT,TemperatureF,Dew PointF,Humidity,Sea Level PressureIn,VisibilityMPH,Wind Direction,Wind SpeedMPH,Gust SpeedMPH,PrecipitationIn,Events,Conditions,WindDirDegrees,DateUTC
12:52 AM,52.0,36.0,54,30.04,10.0,ESE,4.6,-,N/A,,Clear,110,2013-04-26 07:52:00
1:52 AM,54.0,36.0,51,30.05,10.0,SSE,4.6,-,N/A,,Clear,160,2013-04-26 08:52:00
2:52 AM,52.0,37.0,57,30.06,10.0,Calm,Calm,-,N/A,,Clear,0,2013-04-26 09:52:00
3:52 AM,50.0,37.0,61,30.07,10.0,Calm,Calm,-,N/A,,Clear,0,2013-04-26 10:52:00
4:52 AM,51.1,37.9,61,30.08,10.0,South,6.9,-,N/A,,Clear,180,2013-04-26 11:52:00
5:52 AM,46.9,37.0,68,30.11,10.0,SSE,4.6,-,N/A,,Clear,160,2013-04-26 12:52:00
6:52 AM,48.9,37.9,66,30.11,10.0,ESE,5.8,-,N/A,,Clear,120,2013-04-26 13:52:00
7:52 AM,55.9,41.0,57,30.13,10.0,East,3.5,-,N/A,,Clear,80,2013-04-26 14:52:00
8:52 AM,61.0,41.0,48,30.14,10.0,SE,5.8,-,N/A,,Clear,140,2013-04-26 15:52:00
9:52 AM,66.9,39.9,37,30.14,10.0,SSW,6.9,-,N/A,,Clear,200,2013-04-26 16:52:00
10:52 AM,72.0,39.0,30,30.14,10.0,South,6.9,-,N/A,,Clear,170,2013-04-26 17:52:00
11:52 AM,75.0,36.0,24,30.14,10.0,SW,6.9,16.1,N/A,,Clear,220,2013-04-26 18:52:00
12:52 PM,77.0,36.0,23,30.12,10.0,SW,6.9,-,N/A,,Clear,220,2013-04-26 19:52:00
1:52 PM,81.0,35.1,19,30.11,10.0,West,8.1,-,N/A,,Clear,280,2013-04-26 20:52:00
2:52 PM,82.9,25.0,12,30.10,10.0,SW,13.8,17.3,N/A,,Clear,230,2013-04-26 21:52:00
3:52 PM,82.0,26.1,13,30.09,10.0,West,9.2,-,N/A,,Clear,260,2013-04-26 22:52:00
4:52 PM,82.9,26.1,13,30.08,10.0,NW,10.4,-,N/A,,Clear,320,2013-04-26 23:52:00
5:52 PM,82.9,27.0,13,30.08,10.0,NW,8.1,-,N/A,,Clear,310,2013-04-27 00:52:00
6:52 PM,80.1,27.0,14,30.07,10.0,NW,9.2,-,N/A,,Clear,310,2013-04-27 01:52:00
7:52 PM,73.0,28.9,20,30.07,10.0,West,9.2,-,N/A,,Clear,280,2013-04-27 02:52:00
8:52 PM,68.0,30.9,25,30.09,10.0,West,8.1,-,N/A,,Clear,280,2013-04-27 03:52:00
9:52 PM,66.9,27.0,22,30.10,10.0,West,12.7,-,N/A,,Clear,270,2013-04-27 04:52:00
10:52 PM,64.0,26.1,24,30.10,10.0,West,9.2,-,N/A,,Clear,280,2013-04-27 05:52:00
11:52 PM,64.0,24.1,22,30.10,10.0,West,6.9,-,N/A,,Clear,270,2013-04-27 06:52:00